TimeCDT,TemperatureF,Dew PointF,Humidity,Sea Level PressureIn,VisibilityMPH,Wind Direction,Wind SpeedMPH,Gust SpeedMPH,PrecipitationIn,Events,Conditions,WindDirDegrees,DateUTC
12:51 AM,42.1,27.0,55,30.01,10.0,NNW,17.3,-,N/A,,Mostly Cloudy,340,2012-10-30 05:51:00
1:51 AM,41.0,24.8,53,29.98,10.0,NNW,20.7,28.8,N/A,,Mostly Cloudy,330,2012-10-30 06:51:00
2:51 AM,41.0,25.0,53,29.97,10.0,NNW,19.6,28.8,N/A,,Overcast,330,2012-10-30 07:51:00
3:51 AM,41.0,26.1,55,29.94,10.0,NNW,24.2,34.5,N/A,,Overcast,340,2012-10-30 08:51:00
4:51 AM,39.9,27.0,60,29.93,10.0,NNW,25.3,31.1,N/A,,Overcast,330,2012-10-30 09:51:00
5:51 AM,39.2,26.6,61,29.89,10.0,NNW,25.3,33.4,N/A,,Overcast,340,2012-10-30 10:51:00
6:51 AM,39.9,26.1,58,29.89,10.0,NNW,24.2,35.7,N/A,,Mostly Cloudy,340,2012-10-30 11:51:00
7:51 AM,39.2,24.8,56,29.86,10.0,NNW,26.5,34.5,N/A,,Overcast,340,2012-10-30 12:51:00
8:51 AM,41.0,24.1,51,29.86,10.0,NNW,25.3,39.1,N/A,,Overcast,340,2012-10-30 13:51:00
9:51 AM,42.8,23.0,46,29.82,10.0,North,20.7,36.8,N/A,,Overcast,350,2012-10-30 14:51:00
10:51 AM,43.0,24.1,47,29.83,10.0,NNW,21.9,42.6,N/A,,Overcast,340,2012-10-30 15:51:00
11:51 AM,46.0,25.0,44,29.82,10.0,NNW,21.9,-,N/A,,Mostly Cloudy,340,2012-10-30 16:51:00
12:51 PM,46.0,25.0,44,29.81,10.0,NNW,23.0,29.9,N/A,,Mostly Cloudy,330,2012-10-30 17:51:00
1:51 PM,46.4,26.6,46,29.78,10.0,North,16.1,28.8,N/A,,Mostly Cloudy,350,2012-10-30 18:51:00
2:51 PM,46.9,27.0,46,29.79,10.0,North,16.1,24.2,N/A,,Mostly Cloudy,350,2012-10-30 19:51:00
3:51 PM,46.9,27.0,46,29.80,10.0,NNW,19.6,25.3,N/A,,Overcast,330,2012-10-30 20:51:00
4:51 PM,46.9,27.0,46,29.81,10.0,NNW,16.1,25.3,N/A,,Overcast,340,2012-10-30 21:51:00
5:51 PM,46.0,26.1,46,29.82,10.0,NNW,20.7,31.1,N/A,,Overcast,340,2012-10-30 22:51:00
6:51 PM,46.0,25.0,44,29.83,10.0,NNW,17.3,31.1,N/A,,Overcast,340,2012-10-30 23:51:00
7:51 PM,45.0,25.0,46,29.83,10.0,North,13.8,23.0,N/A,,Overcast,360,2012-10-31 00:51:00
8:51 PM,45.0,28.0,52,29.83,10.0,North,9.2,17.3,N/A,,Overcast,360,2012-10-31 01:51:00
9:51 PM,44.6,21.2,39,29.80,10.0,NNW,13.8,-,N/A,,Overcast,330,2012-10-31 02:51:00
10:51 PM,43.0,24.1,47,29.81,10.0,NNW,12.7,20.7,N/A,,Overcast,330,2012-10-31 03:51:00
11:51 PM,43.0,26.1,51,29.80,10.0,North,15.0,28.8,N/A,,Overcast,350,2012-10-31 04:51:00